Temperature
16 14 13 14 13 15 16 15 14 14 15 15 14 14 15 16 16 16 17 17 18 18 18 19 19 19 19 18 18 17 16 16 14 13 13 12 12 11 11 11 10 10 9 9
14 13 14 14 15 15 15 15 14 14 15 15 14 13 13 14 15 16 17 17 17 17 18 18 19 19 18 18 17 17 16 16 15 14 14 13 12 11 11 10 10 9 9 8
14 15 16 16 16 16 16 15 14 14 13 13 14 14 14 15 15 16 16 16 16 17 17 17 18 18 17 17 16 16 16 15 15 14 13 12 11 11 10 10 10 10 9 8
13 14 16 16 16 16 14 15 15 15 13 12 13 13 13 15 15 15 15 16 16 16 16 16 16 16 16 16 16 15 15 14 14 13 13 12 12 11 11 11 10 10 9 8
15 16 17 16 16 16 15 15 15 14 13 12 12 12 12 14 15 14 14 15 15 15 15 15 15 15 15 15 15 15 14 13 13 12 12 11 11 11 10 10 9 9 9 8
14 16 17 16 16 16 15 14 13 10 10 12 13 12 13 12 14 14 14 14 15 15 15 15 14 14 14 14 14 14 13 13 12 12 11 11 10 10 10 9 9 9 8 8
15 15 16 16 15 15 14 13 12 13 12 12 13 13 13 14 14 13 13 14 14 14 14 14 14 13 13 13 13 13 13 12 12 12 11 11 10 10 9 9 9 8 8 8
15 15 15 15 15 14 14 13 13 13 12 11 12 13 13 13 14 15 15 14 14 14 14 13 13 13 13 13 13 12 12 12 11 11 11 10 10 10 9 9 9 8 8 8
14 15 15 14 15 15 15 13 12 11 12 11 11 11 13 13 12 12 13 13 14 14 13 13 13 12 12 12 12 12 11 11 11 11 10 10 10 9 9 9 8 8 8 7
15 15 15 14 15 14 14 12 10 11 12 11 11 11 13 14 13 12 12 13 13 13 13 12 12 12 12 11 11 11 11 10 10 10 10 9 9 9 8 8 8 8 8 7
16 14 14 13 13 13 12 13 12 10 10 10 10 11 13 14 13 12 12 13 13 13 12 12 12 11 11 11 11 11 10 10 9 9 9 9 8 8 8 8 7 7 7 7
13 11 12 12 13 12 12 12 11 11 11 9 9 11 13 12 12 13 13 13 13 12 12 11 11 11 11 10 10 10 9 9 9 8 8 8 8 7 7 7 7 6 6 6
13 11 12 12 13 13 13 12 11 11 10 8 9 11 12 11 12 12 12 12 12 11 11 11 11 10 10 10 9 9 9 8 8 8 7 7 7 7 7 6 6 6 5 5
12 11 11 12 12 12 13 13 12 11 9 9 9 11 12 12 11 11 11 11 11 11 10 10 10 9 9 9 8 8 8 7 7 7 7 7 6 6 6 6 5 5 5 4
11 11 10 11 11 11 11 11 11 10 9 10 10 10 11 11 10 11 11 11 10 10 10 9 9 9 8 8 7 7 7 7 6 6 6 6 6 5 5 5 5 4 4 4
10 10 11 11 11 10 10 10 10 10 10 9 10 10 10 10 10 10 10 10 9 9 9 8 8 8 7 7 6 6 6 6 6 5 5 5 5 5 4 4 4 3 3 3
8 9 9 8 9 9 8 9 10 9 9 9 9 10 10 9 10 10 10 9 9 8 8 8 7 7 6 6 6 5 5 5 5 5 5 4 4 4 3 3 3 2 2 2
8 8 7 7 9 8 9 10 10 10 10 10 10 9 9 10 10 10 9 8 8 8 7 7 6 6 6 5 5 5 5 5 4 4 4 4 3 3 2 2 2 1 1 1
8 8 7 6 7 7 8 10 11 11 10 9 9 9 9 9 8 8 8 8 7 7 6 6 6 5 5 5 4 4 4 4 4 3 3 3 2 2 1 1 1 0 -0 -0
6 7 7 6 7 7 9 10 11 11 9 9 8 8 8 7 5 6 8 7 7 6 6 5 5 5 4 4 4 3 3 3 3 2 2 1 1 0 0 -0 -0 -1 -1 -1
6 6 6 5 6 7 8 9 10 9 8 8 8 8 7 6 6 7 6 6 5 5 5 4 4 4 4 3 3 3 3 2 2 1 1 0 0 -0 -1 -1 -1 -1 -2 -2
6 5 4 4 6 7 9 9 8 8 8 8 7 7 7 6 6 6 5 5 4 4 4 4 3 3 3 3 2 2 2 1 1 0 -0 -0 -1 -1 -1 -2 -2 -2 -2 -3
6 6 6 6 7 8 9 8 8 8 7 7 6 6 6 5 5 4 4 4 4 4 3 3 3 3 2 2 2 1 1 0 -0 -1 -1 -1 -2 -2 -2 -3 -3 -3 -3 -3
6 6 5 6 6 8 8 7 7 6 6 6 5 5 5 4 4 4 4 4 3 3 3 2 2 2 2 1 1 0 0 -1 -1 -2 -2 -2 -3 -3 -3 -3 -3 -4 -4 -4
6 6 5 5 6 6 6 6 6 6 6 5 5 5 4 4 4 3 3 3 3 2 2 2 1 1 1 0 0 -0 -1 -2 -2 -3 -3 -3 -3 -4 -4 -4 -4 -4 -4 -4
4 5 5 5 6 5 6 6 6 5 5 5 4 4 4 3 3 3 3 2 2 2 1 1 1 0 -0 -0 -1 -1 -2 -3 -3 -4 -4 -4 -4 -4 -4 -5 -5 -4 -4 -4
Wind_Speed
1 2 5 9 9 8 5 6 9 9 6 5 9 13 15 8 1 3 3 6 8 8 9 8 6 1 5 8 11 14 16 15 12 9 11 12 14 12 9 14 20 22 23 24
3 6 11 8 6 7 6 7 8 8 5 4 8 11 9 2 4 5 5 5 6 8 11 11 9 5 1 5 8 11 13 13 14 15 13 8 8 7 8 8 14 20 22 23
8 8 4 5 5 5 6 7 7 6 9 6 6 9 6 4 3 4 4 3 4 6 8 9 9 7 3 2 6 9 11 13 13 12 7 3 3 2 4 8 9 14 21 23
8 7 5 6 6 5 6 5 4 3 5 6 4 4 6 2 0 2 2 3 4 5 6 6 8 8 6 4 3 4 6 9 10 10 9 11 11 13 13 12 11 10 17 20
6 3 4 6 6 6 6 1 2 2 1 4 2 3 8 3 5 5 4 1 1 3 5 6 6 7 7 6 4 2 1 4 7 9 11 11 14 14 10 7 9 11 11 16
8 4 4 5 2 2 1 5 5 5 4 4 4 5 7 5 8 7 5 4 1 2 4 5 6 6 7 8 7 5 2 2 4 7 9 11 14 14 11 10 11 11 10 11
5 2 2 3 2 1 5 5 5 5 4 5 4 4 8 7 6 9 9 6 3 1 2 3 5 6 7 8 7 6 5 3 3 5 8 11 14 14 14 14 12 12 10 11
3 5 5 4 6 5 4 6 5 3 4 6 6 5 7 6 2 7 7 6 3 1 0 1 2 3 4 6 6 6 5 4 4 4 7 8 10 10 11 13 12 13 12 13
6 5 1 2 2 6 4 4 6 5 2 4 7 8 7 5 6 5 4 4 4 3 2 1 2 3 4 5 4 4 5 5 6 6 6 7 8 9 11 12 11 11 12 11
8 4 1 1 2 2 3 6 5 4 2 5 7 7 4 3 3 3 5 6 6 4 3 1 2 3 3 4 4 5 5 5 6 6 6 6 7 8 9 9 10 11 12 11
5 5 2 1 6 7 5 4 5 4 4 5 5 8 5 5 6 6 7 7 6 5 3 2 2 3 4 5 5 5 6 6 6 7 7 7 8 8 8 8 10 10 10 10
5 5 3 7 5 4 8 8 8 5 5 6 4 8 5 4 4 5 6 5 4 3 2 2 3 4 5 6 6 6 6 7 7 7 7 7 8 8 8 9 10 9 10 10
6 5 1 7 3 1 2 4 6 4 3 5 5 8 3 1 1 0 1 1 2 2 2 3 4 5 6 6 7 7 7 7 7 7 7 8 8 8 9 10 10 9 9 10
6 5 7 8 7 3 4 5 5 6 5 7 11 13 10 9 8 3 0 0 1 3 3 3 4 6 7 7 7 7 8 7 7 7 8 8 9 9 10 10 9 9 9 10
6 5 6 7 6 5 7 10 9 10 10 11 11 12 14 9 5 2 1 2 2 3 4 5 6 6 7 7 8 8 8 8 8 8 9 9 10 9 9 9 10 10 10 10
4 5 3 4 6 7 11 14 14 12 10 11 12 14 7 2 3 2 1 2 2 3 5 7 8 8 8 8 8 8 8 9 8 9 10 10 10 10 10 10 10 10 10 10
5 7 4 4 4 7 10 10 8 7 8 8 9 7 2 2 1 0 1 1 2 5 7 8 8 8 8 8 7 8 8 9 9 10 10 11 10 11 11 11 10 11 10 10
8 8 5 2 1 9 9 4 4 5 4 2 2 2 2 2 3 2 2 1 5 7 8 9 8 8 7 6 7 8 8 9 9 10 11 11 11 11 12 11 11 11 10 10
7 8 5 4 4 9 10 6 2 2 0 2 4 2 0 2 3 4 3 2 5 8 9 8 8 7 7 8 8 8 9 10 10 11 11 11 11 12 12 12 12 11 11 11
3 5 6 6 5 8 8 5 2 2 3 0 2 1 2 3 4 5 6 7 9 9 8 8 7 6 7 8 8 8 10 10 11 12 12 12 12 12 13 13 13 12 11 12
4 4 6 6 6 9 8 6 2 3 4 1 2 2 2 2 6 8 9 9 9 9 9 8 7 7 8 9 8 10 11 12 12 12 12 12 12 12 13 13 11 12 12 12
8 7 7 7 7 9 4 2 4 3 1 1 0 2 5 7 9 9 9 8 9 9 8 7 7 8 9 9 9 11 13 13 13 12 13 13 12 12 12 12 13 12 12 13
8 9 7 10 8 2 3 5 4 3 2 2 3 6 7 8 8 8 7 8 8 8 8 7 8 10 10 9 9 13 15 14 14 14 13 13 13 11 11 12 13 13 11 11
4 3 5 5 5 2 4 5 2 2 3 5 6 6 5 6 7 8 8 8 8 8 8 7 9 11 12 11 11 12 15 15 15 15 14 13 13 13 11 10 10 11 11 12
5 3 3 4 4 1 3 3 3 2 2 2 3 4 5 6 7 7 7 8 7 8 7 8 10 12 14 14 13 13 13 14 14 14 14 13 12 13 12 11 11 13 12 14
5 6 6 6 4 3 4 3 1 2 3 4 4 5 6 5 7 7 7 7 8 9 9 11 12 13 15 15 15 14 12 12 14 14 13 11 11 11 11 12 13 18 19 24
Wind_Direction
37 85 224 223 209 216 237 250 271 268 277 288 266 277 290 303 98 102 62 31 23 6 342 350 352 263 195 197 199 202 203 204 192 191 198 204 215 214 213 216 214 212 212 210
18 257 240 229 219 217 237 269 280 292 326 302 289 293 301 315 143 134 106 61 34 16 8 6 12 28 159 202 206 206 206 201 199 205 207 207 213 216 216 217 217 214 214 213
221 245 247 198 215 241 260 247 261 285 326 345 349 335 351 17 69 85 76 57 36 34 19 6 7 13 9 255 223 216 211 205 205 203 191 186 180 236 216 219 222 217 215 216
238 251 217 221 237 211 266 254 242 303 359 313 21 311 290 279 170 124 81 39 34 27 22 14 9 7 356 320 274 235 218 209 204 192 192 198 211 224 226 226 225 219 216 219
262 232 195 219 231 193 233 296 275 268 124 317 305 205 282 261 219 216 211 207 47 28 23 16 7 3 2 359 2 337 242 218 203 197 203 210 226 235 239 230 230 228 224 223
247 247 219 210 172 167 47 34 43 50 66 316 247 182 277 224 210 198 201 208 175 39 25 17 9 13 10 11 20 25 16 283 221 209 214 220 232 239 244 240 237 237 235 231
300 251 220 142 127 58 72 62 7 348 0 267 279 226 254 254 216 177 176 183 187 146 46 20 21 17 11 13 15 16 11 328 275 230 228 230 236 241 244 247 246 245 245 241
280 284 226 194 182 183 183 140 159 241 261 291 316 256 267 309 106 126 143 160 174 180 281 352 6 9 1 10 13 8 358 329 304 263 250 245 244 245 251 251 249 249 251 249
198 260 14 183 213 163 164 178 173 148 269 276 286 293 313 38 80 108 136 160 192 213 236 273 339 348 349 355 352 342 335 322 310 290 273 265 255 248 253 257 255 256 256 256
164 228 281 42 78 32 148 145 107 140 234 274 291 286 242 199 190 182 194 208 218 225 236 251 324 335 336 334 329 330 319 306 301 300 287 278 272 262 260 265 264 262 262 260
139 176 273 309 204 205 159 178 164 154 168 185 266 273 232 199 189 189 213 219 217 220 232 264 306 320 327 332 334 332 327 316 309 303 294 290 288 284 280 272 270 269 270 267
131 130 238 258 250 208 185 189 157 170 226 197 210 267 265 170 172 179 207 224 231 237 246 270 305 326 333 331 327 324 319 314 306 303 300 294 292 293 289 282 278 276 275 272
132 119 9 333 337 58 194 188 175 152 157 193 207 260 282 168 343 11 165 213 264 285 294 311 325 325 319 314 311 309 308 306 305 307 308 305 302 298 292 287 285 283 279 279
116 143 180 213 217 200 259 253 217 181 207 234 229 251 279 299 310 315 40 310 309 320 318 322 317 307 304 303 301 302 305 305 307 309 307 303 297 293 289 287 286 283 281 280
121 183 221 243 252 244 245 253 243 226 218 235 251 255 269 272 260 205 158 359 359 344 333 322 310 301 301 302 302 304 305 307 308 309 306 298 294 293 292 290 286 284 282 280
122 166 197 273 272 279 276 265 252 244 233 237 260 272 278 157 132 122 33 10 350 320 311 306 302 300 297 296 298 302 303 304 307 305 300 298 299 299 296 292 289 287 285 282
153 149 155 262 304 337 280 256 236 226 224 214 235 246 165 125 131 316 326 352 297 295 293 293 292 287 288 289 292 297 296 301 305 302 301 301 300 299 296 294 292 288 287 283
151 149 156 205 7 251 246 240 228 239 261 239 180 120 128 195 255 261 185 223 290 292 290 287 284 285 286 289 296 296 299 304 305 303 300 300 299 296 295 293 290 288 284 282
163 152 153 161 224 277 290 282 228 187 266 66 112 106 328 290 333 304 236 270 280 282 282 279 278 280 287 294 298 304 306 306 305 303 300 299 297 296 295 293 291 289 288 286
105 145 153 166 201 245 254 265 268 79 238 256 107 68 348 24 345 285 281 296 293 291 290 289 292 295 299 301 307 307 304 304 302 300 298 297 294 293 294 292 291 290 287 287
119 143 177 179 217 260 257 268 136 194 248 24 62 39 348 255 243 261 282 287 284 288 291 295 300 299 296 301 308 305 304 301 298 297 297 296 293 291 292 291 290 292 292 290
171 168 181 165 200 250 262 124 142 195 121 95 266 262 261 257 264 275 282 285 292 296 297 301 302 300 299 302 305 303 303 300 299 297 297 296 293 292 297 293 295 293 292 293
194 189 182 190 207 214 90 107 108 129 160 228 249 261 263 269 276 285 288 291 293 294 296 298 297 300 301 300 298 300 303 304 303 301 298 297 296 293 291 292 296 298 295 293
252 157 162 224 256 148 114 117 124 181 211 240 255 267 272 280 288 293 292 293 296 297 300 301 305 306 307 305 298 292 298 302 302 301 301 300 300 300 294 290 291 294 294 293
233 148 164 246 268 112 147 166 205 224 243 276 287 276 283 290 295 294 297 297 297 297 297 298 300 302 304 305 302 298 298 301 301 300 301 301 297 298 299 294 291 292 285 286
206 187 193 231 225 198 250 261 288 318 309 300 305 310 313 306 296 300 299 295 296 299 301 303 301 301 304 305 304 303 301 299 301 305 304 303 301 300 298 299 299 293 291 294
Height
1536 1540 1542 1539 1538 1537 1537 1539 1540 1533 1524 1523 1522 1517 1508 1505 1505 1505 1504 1502 1501 1499 1498 1495 1493 1492 1492 1492 1494 1495 1497 1499 1501 1502 1504 1505 1505 1506 1507 1508 1510 1512 1513 1515
1540 1541 1532 1531 1532 1534 1535 1537 1537 1529 1523 1523 1521 1517 1508 1503 1504 1504 1505 1504 1502 1501 1498 1496 1494 1493 1492 1492 1492 1493 1494 1495 1497 1498 1499 1500 1502 1502 1503 1504 1505 1505 1506 1507
1539 1532 1526 1528 1530 1532 1533 1535 1533 1531 1527 1523 1523 1519 1511 1507 1506 1506 1506 1505 1504 1502 1500 1498 1496 1494 1493 1492 1491 1491 1491 1492 1494 1495 1496 1496 1497 1497 1497 1497 1498 1499 1499 1500
1533 1526 1526 1527 1529 1529 1535 1527 1528 1528 1533 1536 1531 1536 1519 1511 1509 1508 1507 1506 1505 1503 1501 1499 1497 1495 1493 1492 1491 1490 1490 1490 1491 1492 1492 1492 1491 1490 1490 1491 1491 1492 1492 1492
1529 1524 1524 1526 1526 1525 1527 1525 1527 1527 1531 1537 1534 1536 1525 1513 1511 1509 1507 1506 1505 1504 1503 1500 1498 1496 1494 1492 1490 1489 1488 1488 1488 1488 1489 1488 1487 1486 1486 1485 1484 1484 1484 1484
1525 1522 1521 1522 1522 1523 1524 1527 1530 1536 1540 1541 1530 1536 1526 1515 1507 1506 1506 1506 1506 1505 1503 1502 1500 1498 1495 1493 1491 1489 1488 1487 1487 1486 1486 1485 1483 1482 1481 1479 1478 1477 1476 1475
1524 1521 1520 1520 1523 1525 1527 1536 1544 1540 1545 1539 1528 1529 1521 1503 1499 1500 1503 1505 1506 1505 1504 1502 1500 1498 1496 1494 1492 1491 1489 1488 1486 1485 1484 1482 1480 1478 1476 1474 1472 1470 1468 1466
1529 1529 1521 1519 1521 1525 1527 1534 1545 1547 1550 1543 1529 1526 1512 1502 1497 1499 1503 1505 1505 1505 1504 1502 1501 1499 1497 1495 1493 1491 1490 1488 1486 1484 1482 1480 1478 1475 1472 1469 1467 1464 1461 1458
1528 1526 1518 1518 1519 1522 1526 1532 1533 1543 1544 1546 1537 1525 1510 1502 1502 1503 1504 1505 1505 1504 1503 1502 1501 1499 1497 1495 1493 1491 1489 1487 1485 1482 1480 1477 1475 1471 1468 1465 1461 1458 1455 1452
1517 1523 1519 1519 1520 1521 1523 1528 1538 1541 1546 1550 1541 1530 1517 1507 1506 1505 1505 1504 1503 1503 1502 1501 1500 1499 1497 1495 1493 1490 1488 1485 1482 1479 1476 1474 1470 1467 1463 1460 1456 1452 1449 1445
1512 1523 1524 1522 1523 1522 1527 1528 1530 1539 1544 1549 1548 1532 1506 1503 1502 1503 1503 1502 1502 1502 1501 1501 1499 1498 1496 1494 1491 1488 1485 1482 1479 1475 1472 1468 1465 1461 1458 1454 1450 1446 1442 1438
1513 1524 1529 1524 1518 1517 1520 1522 1529 1537 1538 1541 1545 1529 1499 1500 1500 1500 1500 1500 1500 1501 1500 1499 1498 1496 1494 1491 1488 1485 1482 1478 1475 1471 1467 1463 1459 1455 1451 1447 1443 1438 1434 1430
1513 1524 1531 1527 1524 1519 1518 1518 1522 1526 1533 1539 1541 1523 1499 1499 1498 1498 1499 1499 1499 1500 1499 1498 1496 1494 1491 1488 1485 1481 1478 1474 1470 1466 1461 1457 1453 1448 1444 1440 1435 1431 1426 1422
1509 1520 1527 1528 1524 1519 1518 1517 1517 1524 1532 1532 1524 1511 1501 1498 1498 1498 1498 1498 1498 1498 1497 1495 1493 1491 1488 1484 1481 1477 1473 1469 1464 1460 1456 1451 1447 1442 1437 1433 1428 1423 1419 1414
1509 1518 1519 1518 1517 1517 1517 1516 1515 1518 1518 1518 1509 1506 1498 1496 1496 1496 1497 1497 1496 1495 1494 1492 1490 1487 1483 1480 1476 1472 1468 1464 1460 1455 1450 1446 1441 1436 1431 1425 1420 1415 1410 1405
1509 1515 1517 1517 1514 1514 1513 1508 1507 1507 1507 1507 1503 1499 1493 1493 1494 1495 1496 1495 1494 1493 1491 1489 1486 1482 1479 1475 1470 1466 1463 1459 1454 1449 1445 1439 1434 1428 1423 1418 1412 1407 1401 1396
1511 1515 1520 1524 1518 1516 1513 1500 1499 1500 1498 1498 1500 1496 1494 1494 1494 1494 1494 1493 1492 1490 1488 1485 1481 1477 1473 1469 1465 1461 1457 1453 1449 1444 1438 1433 1427 1421 1415 1410 1404 1398 1392 1387
1509 1514 1521 1525 1521 1523 1502 1493 1493 1493 1492 1492 1492 1493 1493 1494 1494 1493 1492 1491 1489 1487 1484 1480 1476 1472 1468 1465 1461 1456 1452 1448 1442 1437 1431 1426 1419 1413 1407 1401 1395 1389 1383 1378
1501 1509 1518 1525 1524 1515 1499 1491 1488 1489 1492 1492 1492 1493 1493 1493 1492 1491 1490 1488 1486 1483 1479 1475 1471 1467 1463 1460 1455 1451 1446 1441 1436 1430 1424 1418 1412 1405 1398 1392 1386 1380 1374 1368
1502 1504 1514 1520 1518 1516 1497 1488 1486 1489 1493 1493 1491 1492 1492 1491 1494 1490 1487 1484 1481 1478 1474 1470 1466 1463 1459 1455 1450 1445 1440 1434 1428 1422 1416 1410 1404 1397 1390 1384 1378 1372 1366 1359
1505 1508 1512 1515 1514 1504 1490 1486 1487 1496 1496 1492 1491 1491 1491 1490 1490 1486 1483 1479 1476 1473 1469 1465 1461 1458 1454 1450 1445 1439 1433 1427 1421 1414 1408 1402 1396 1390 1382 1375 1369 1363 1357 1351
1499 1506 1510 1513 1512 1503 1485 1485 1489 1491 1490 1490 1490 1489 1488 1486 1483 1480 1477 1474 1471 1467 1464 1460 1457 1453 1449 1445 1439 1432 1426 1420 1413 1406 1399 1393 1387 1381 1374 1367 1360 1355 1349 1342
1490 1489 1492 1494 1491 1486 1484 1485 1487 1488 1489 1488 1487 1486 1484 1481 1478 1475 1472 1469 1466 1463 1459 1456 1451 1447 1442 1438 1433 1426 1418 1412 1404 1397 1390 1384 1377 1371 1366 1359 1352 1346 1340 1335
1483 1482 1485 1487 1483 1483 1484 1485 1486 1486 1486 1485 1483 1481 1479 1476 1473 1470 1468 1464 1461 1458 1454 1450 1446 1440 1434 1430 1425 1419 1412 1404 1396 1389 1381 1375 1368 1362 1356 1351 1345 1339 1333 1327
1480 1481 1483 1483 1482 1482 1483 1483 1483 1482 1481 1480 1478 1477 1474 1472 1469 1466 1463 1460 1457 1453 1449 1445 1440 1433 1427 1421 1415 1410 1404 1396 1388 1380 1373 1367 1360 1354 1347 1342 1337 1331 1326 1322
1477 1478 1481 1480 1478 1480 1480 1479 1479 1478 1477 1476 1474 1472 1470 1468 1465 1462 1459 1456 1452 1448 1443 1438 1433 1427 1420 1414 1407 1402 1396 1389 1380 1372 1365 1359 1352 1346 1340 1333 1327 1322 1319 1313